Location: Arrodets-la-Barthe
(43.0306°N, 0.2829°E)
Time: 06:51:58
(UTC+00:00)

CUBEBUG 2 - Pass Details

Date: 05 April 2023
Orbit: 577 x 685 km, 97.8° (Epoch: 03 June)

Event Time Altitude Azimuth Distance (km) Brightness Sun altitude
Rises 03:08:31 0° 5° (N) 3,056 ? -25.3°
Reaches altitude 10° 03:10:53 10° 358° (N) 2,127 ? -25.0°
Enters shadow 03:14:18 36° 319° (NW) 1,070 ? -24.5°
